INMARSAT 3-F5

Last updated on Sun Mar 15 2026 00:02:51 GMT+0000 (Coordinated Universal Time)

1 25153U 98006B 26073.44999505 -.00000286 00000+0 00000+0 0 9997 2 25153 9.4812 54.1825 0005180 303.9814 281.9420 1.00272558102941
UTC large
Height (km)
Speed (km/s)
/
Latitude / Longitude
Inclination (degrees)
Orbital Period (minutes)
Azimuth
Elevation
Range (km)
Doppler Factor

Next 0 passes for location: London (51.5072 / 0.1276)

Sorry there are no passes over London.